Content
SEND FEEDBACK

Daily
Averages
Monthly
Summary
Mexico

COZUMEL, QUINTANA ROO


Home > North America > Mexico > Quintana Roo
Elevation: 15 feet     Latitude: 20 31N     Longitude: 086 56W

WEATHER
 
SELECT A DAY
Number of Records: 127,458;   Date Range: 1/1/95 - 10/30/14
 
SHARE

PRINT THIS DATA

[ ← Previous Day ]
WEATHER ALMANAC - DECEMBER 22, 2013
[ Next Day → ]
[ °C ]   °F
Weather ElementAverageHighLow
Temperature75 °F80.6 °F (9:41 am)68 °F (9:50 pm)
Dewpoint71.6 °F73.4 °F (7:45 am)68 °F (9:50 pm)
Humidity89.5 %100 % (6:43 pm)74 % (12:41 pm)
Barometer29.98 in30.05 in (8:42 pm)29.92 in (4:47 am)
Wind Speed9.1 mph18.4 mph (10:47 am)
Wind Gust23 mph (1:41 pm)
Weather ElementAverage
Visibility7.3 mi
Wind DirectionESE (122.2 °)

Weather ElementTotal
Precipitation---
Cooling Degree Days9.3 (Base 65)
Growing Degree Days24.3 (Base 50)
Averaged from 23 records on December 22, 2013
WEATHER CONDITIONS BREAKOUT
WIND DIRECTION BREAKOUT
WEATHER BY HOUR - DECEMBER 22, 2013
[ °C ]   °F
Local TimeTemperatureDewpointHumidityBarometerVisibilityWind DirectionWind SpeedGust SpeedPrecipitationEventsConditions
1:44 AM73.4 °F69.8 °F88 %29.94 in7.0 miSE (140°)5.8 mphPartly Cloudy
2:44 AM73.4 °F71.6 °F94 %29.96 in7.0 miSE (130°)8.1 mphPartly Cloudy
3:48 AM73.4 °F71.6 °F94 %29.93 in7.0 miSE (130°)6.9 mphPartly Cloudy
4:47 AM73.4 °F71.6 °F94 %29.92 in7.0 miSE (130°)10.4 mphPartly Cloudy
5:47 AM73.4 °F71.6 °F94 %29.93 in7.0 miSE (130°)6.9 mphScattered Clouds
6:44 AM73.4 °F71.6 °F94 %29.95 in8.0 miSE (130°)6.9 mphScattered Clouds
7:45 AM77.0 °F73.4 °F89 %29.98 in8.0 miSE (130°)13.8 mphScattered Clouds
8:40 AM78.8 °F73.4 °F83 %30.03 in8.0 miSE (130°)11.5 mphScattered Clouds
9:41 AM80.6 °F73.4 °F79 %30.01 in8.0 miSE (130°)16.1 mphScattered Clouds
10:47 AM80.6 °F73.4 °F79 %30.00 in8.0 miSE (130°)18.4 mphScattered Clouds
11:44 AM80.6 °F73.4 °F79 %29.99 in8.0 miSE (140°)12.7 mphScattered Clouds
12:41 PM80.6 °F71.6 °F74 %29.96 in8.0 miSE (130°)18.4 mphScattered Clouds
1:41 PM80.6 °F73.4 °F79 %29.94 in8.0 miSE (140°)11.5 mph23.0 mphScattered Clouds
2:40 PM78.8 °F71.6 °F78 %29.97 in8.0 miSSE (150°)10.4 mphScattered Clouds
3:41 PM78.8 °F73.4 °F83 %29.94 in8.0 miSE (140°)11.5 mphScattered Clouds
4:45 PM77.0 °F71.6 °F83 %29.97 in8.0 miSE (140°)6.9 mphScattered Clouds
5:46 PM73.4 °F71.6 °F94 %29.97 in7.0 miSE (130°)4.6 mphScattered Clouds
6:43 PM71.6 °F71.6 °F100 %30.00 in7.0 miSE (130°)5.8 mphScattered Clouds
7:41 PM69.8 °F69.8 °F100 %30.01 in7.0 miSE (130°)4.6 mphScattered Clouds
8:42 PM69.8 °F69.8 °F100 %30.05 in7.0 miCalmScattered Clouds
9:50 PM68.0 °F68.0 °F100 %30.04 in7.0 miCalmScattered Clouds
10:44 PM69.8 °F69.8 °F100 %30.05 in4.0 miSE (140°)13.8 mphRainRain
11:46 PM69.8 °F69.8 °F100 %30.01 in7.0 miSE (130°)3.5 mphScattered Clouds
Hourly data recorded from MMCZ, located miles away from Cozumel, Quintana Roo







STORIES FROM OUR PARTNERS